TimeMST,TemperatureF,Dew PointF,Humidity,Sea Level PressureIn,VisibilityMPH,Wind Direction,Wind SpeedMPH,Gust SpeedMPH,PrecipitationIn,Events,Conditions,WindDirDegrees,DateUTC
12:53 AM,10.0,5.0,80,30.24,10.0,Calm,Calm,-,N/A,,Clear,0,2013-12-07 07:53:00
1:53 AM,10.0,6.1,84,30.22,10.0,ENE,4.6,-,N/A,,Clear,70,2013-12-07 08:53:00
2:53 AM,10.9,8.1,88,30.19,10.0,Calm,Calm,-,N/A,,Mostly Cloudy,0,2013-12-07 09:53:00
3:53 AM,12.9,8.1,81,30.14,10.0,Calm,Calm,-,N/A,,Clear,0,2013-12-07 10:53:00
4:53 AM,14.0,7.0,74,30.14,10.0,Calm,Calm,-,N/A,,Mostly Cloudy,0,2013-12-07 11:53:00
5:53 AM,15.1,9.0,77,30.12,10.0,Calm,Calm,-,N/A,,Scattered Clouds,0,2013-12-07 12:53:00
6:53 AM,15.1,9.0,77,30.12,10.0,NE,4.6,-,N/A,,Overcast,40,2013-12-07 13:53:00
7:53 AM,15.1,9.0,77,30.13,10.0,East,4.6,-,N/A,,Overcast,80,2013-12-07 14:53:00
8:53 AM,17.1,8.1,68,30.12,10.0,ENE,3.5,-,N/A,,Mostly Cloudy,70,2013-12-07 15:53:00
9:53 AM,21.0,10.0,63,30.10,10.0,ENE,3.5,-,N/A,,Mostly Cloudy,60,2013-12-07 16:53:00
10:53 AM,23.0,10.9,60,30.07,10.0,ESE,6.9,-,N/A,,Overcast,120,2013-12-07 17:53:00
11:53 AM,26.1,12.0,55,30.02,10.0,Variable,4.6,-,N/A,,Mostly Cloudy,0,2013-12-07 18:53:00
12:53 PM,26.1,12.9,58,29.97,10.0,ENE,4.6,-,N/A,,Overcast,70,2013-12-07 19:53:00
1:53 PM,25.0,17.1,72,29.95,7.0,North,8.1,-,0.00,Snow,Light Snow,360,2013-12-07 20:53:00
2:08 PM,24.8,17.6,74,29.77,2.5,North,6.9,-,0.00,Snow,Light Snow,350,2013-12-07 21:08:00
2:24 PM,23.0,19.4,86,29.77,1.5,NNW,6.9,-,0.00,Snow,Light Snow,330,2013-12-07 21:24:00
2:32 PM,23.0,19.4,86,29.77,1.2,North,5.8,-,0.00,Snow,Light Snow,360,2013-12-07 21:32:00
2:40 PM,23.0,19.4,86,29.76,2.0,North,6.9,-,0.00,Snow,Light Snow,360,2013-12-07 21:40:00
2:49 PM,24.8,19.4,80,29.76,6.0,North,5.8,-,0.00,,Overcast,360,2013-12-07 21:49:00
2:53 PM,24.1,19.9,84,29.93,8.0,North,6.9,-,0.00,,Overcast,360,2013-12-07 21:53:00
3:53 PM,24.1,19.0,81,29.89,10.0,NE,5.8,-,0.00,,Overcast,50,2013-12-07 22:53:00
4:53 PM,25.0,19.0,78,29.88,10.0,NNE,4.6,-,N/A,,Overcast,30,2013-12-07 23:53:00
5:31 PM,23.0,21.2,93,29.73,2.5,NNW,4.6,-,0.00,Snow,Light Snow,340,2013-12-08 00:31:00
5:42 PM,23.0,21.2,93,29.73,1.8,NNW,4.6,-,0.00,Snow,Light Snow,340,2013-12-08 00:42:00
5:48 PM,23.0,21.2,93,29.72,3.0,North,3.5,-,0.00,Snow,Light Snow,10,2013-12-08 00:48:00
5:53 PM,23.0,21.0,92,29.88,4.0,NE,3.5,-,0.00,Snow,Light Snow,40,2013-12-08 00:53:00
6:01 PM,23.0,21.2,93,29.72,3.0,ENE,3.5,-,0.00,Snow,Light Snow,70,2013-12-08 01:01:00
6:26 PM,24.8,21.2,86,29.73,1.8,Calm,Calm,-,0.00,Snow,Light Snow,0,2013-12-08 01:26:00
6:32 PM,23.0,21.2,93,29.73,0.8,Calm,Calm,-,0.01,Snow,Light Snow,0,2013-12-08 01:32:00
6:42 PM,23.0,21.2,93,29.72,0.5,SE,4.6,-,0.02,Fog-Snow,Snow,140,2013-12-08 01:42:00
6:53 PM,23.0,21.9,96,29.88,1.5,SE,3.5,-,0.03,Snow,Light Snow,130,2013-12-08 01:53:00
7:04 PM,23.0,21.2,93,29.72,2.5,Calm,Calm,-,0.00,Snow,Light Snow,0,2013-12-08 02:04:00
7:20 PM,23.0,21.2,93,29.72,1.2,Calm,Calm,-,0.00,Snow,Light Snow,0,2013-12-08 02:20:00
7:26 PM,23.0,21.2,93,29.72,0.8,Calm,Calm,-,0.01,Snow,Light Snow,0,2013-12-08 02:26:00
7:38 PM,23.0,21.2,93,29.72,1.5,Calm,Calm,-,0.01,Snow,Light Snow,0,2013-12-08 02:38:00
7:53 PM,23.0,21.9,96,29.88,1.0,ESE,4.6,-,0.02,Snow,Light Snow,120,2013-12-08 02:53:00
8:01 PM,23.0,21.2,93,29.72,0.5,SE,4.6,-,0.02,Fog-Snow,Snow,130,2013-12-08 03:01:00
8:13 PM,23.0,21.2,93,29.72,1.0,Calm,Calm,-,0.03,Snow,Light Snow,0,2013-12-08 03:13:00
8:23 PM,23.0,21.2,93,29.72,0.8,SSE,3.5,-,0.03,Snow,Light Snow,150,2013-12-08 03:23:00
8:38 PM,23.0,21.2,93,29.72,0.8,SSE,3.5,-,0.04,Snow,Light Snow,150,2013-12-08 03:38:00
8:46 PM,23.0,21.2,93,29.71,1.2,SE,3.5,-,0.05,Snow,Light Snow,130,2013-12-08 03:46:00
8:53 PM,23.0,21.9,96,29.86,1.5,Calm,Calm,-,0.05,Snow,Light Snow,0,2013-12-08 03:53:00
8:59 PM,23.0,21.2,93,29.70,2.0,Calm,Calm,-,0.00,Snow,Light Snow,0,2013-12-08 03:59:00
9:07 PM,23.0,21.2,93,29.71,3.0,SSW,4.6,-,0.00,Snow,Light Snow,210,2013-12-08 04:07:00
9:09 PM,23.0,21.2,93,29.71,1.8,SSW,5.8,-,0.00,Snow,Light Snow,210,2013-12-08 04:09:00
9:14 PM,23.0,21.2,93,29.71,0.8,SSW,4.6,-,0.01,Snow,Light Snow,200,2013-12-08 04:14:00
9:21 PM,23.0,21.2,93,29.71,1.5,SSW,3.5,-,0.01,Snow,Light Snow,200,2013-12-08 04:21:00
9:26 PM,23.0,21.2,93,29.71,3.0,SSW,3.5,-,0.01,Snow,Light Snow,200,2013-12-08 04:26:00
9:42 PM,24.8,21.2,86,29.71,1.5,SW,6.9,-,0.01,Snow,Light Snow,220,2013-12-08 04:42:00
9:45 PM,24.8,21.2,86,29.71,1.0,SW,8.1,-,0.01,Snow,Light Snow,220,2013-12-08 04:45:00
9:53 PM,24.1,21.9,91,29.83,2.0,SW,10.4,-,0.01,Snow,Light Snow,230,2013-12-08 04:53:00
10:01 PM,24.8,21.2,86,29.71,9.0,SW,9.2,-,0.00,,Overcast,220,2013-12-08 05:01:00
10:12 PM,24.8,21.2,86,29.70,1.5,SW,8.1,-,0.01,Snow,Light Snow,220,2013-12-08 05:12:00
10:16 PM,24.8,21.2,86,29.71,0.8,SW,9.2,17.3,0.01,Snow,Light Snow,230,2013-12-08 05:16:00
10:26 PM,24.8,21.2,86,29.71,1.0,SW,9.2,-,0.01,Snow,Light Snow,230,2013-12-08 05:26:00
10:30 PM,24.8,21.2,86,29.71,1.5,SW,9.2,-,0.01,Snow,Light Snow,230,2013-12-08 05:30:00
10:34 PM,24.8,21.2,86,29.71,3.0,SW,9.2,-,0.01,Snow,Light Snow,220,2013-12-08 05:34:00
10:41 PM,24.8,21.2,86,29.70,2.5,SSW,5.8,-,0.01,Snow,Light Snow,210,2013-12-08 05:41:00
10:50 PM,24.8,21.2,86,29.70,1.8,SSW,6.9,-,0.02,Snow,Light Snow,210,2013-12-08 05:50:00
10:53 PM,24.1,21.9,91,29.82,2.0,SW,6.9,-,0.02,Snow,Light Snow,230,2013-12-08 05:53:00
10:56 PM,24.8,21.2,86,29.71,1.2,SW,12.7,18.4,0.00,Snow,Light Snow,230,2013-12-08 05:56:00
10:59 PM,24.8,21.2,86,29.70,0.5,SW,16.1,23.0,0.00,Fog-Snow,Snow,220,2013-12-08 05:59:00
11:03 PM,24.8,23.0,93,29.70,0.2,SW,13.8,23.0,0.01,Fog-Snow,Heavy Snow,230,2013-12-08 06:03:00
11:17 PM,24.8,23.0,93,29.70,0.5,SW,10.4,18.4,0.03,Fog-Snow,Snow,230,2013-12-08 06:17:00
11:27 PM,24.8,23.0,93,29.70,1.5,WSW,13.8,21.9,0.03,Snow,Light Snow,240,2013-12-08 06:27:00
11:30 PM,24.8,21.2,86,29.70,3.0,WSW,12.7,21.9,0.03,Snow,Light Snow,240,2013-12-08 06:30:00
11:41 PM,24.8,23.0,93,29.70,1.5,WSW,10.4,-,0.03,Snow,Light Snow,240,2013-12-08 06:41:00
11:49 PM,24.8,23.0,93,29.70,1.2,WSW,13.8,18.4,0.03,Snow,Light Snow,240,2013-12-08 06:49:00
11:53 PM,24.1,23.0,96,29.80,2.0,WSW,12.7,-,0.03,Snow,Light Snow,250,2013-12-08 06:53:00
11:59 PM,24.8,21.2,86,29.69,4.0,SW,10.4,-,0.00,Snow,Light Snow,220,2013-12-08 06:59:00